Location: LewisvilleTX
(33.0462°N, 96.9942°W)
Time: 21:44:10
(UTC+00:00)

Envisat - Visible Passes

Search period start: 13 April 2024 00:00
Search period end: 23 April 2024 00:00
Orbit: 762 x 764 km, 98.3° (Epoch: 13 April)

Date Brightness Start Highest point End Pass type
(mag) Time Alt. Az. Time Alt. Az. Time Alt. Az.
13 Apr 5.6 08:30:19 10° ENE 08:32:20 13° E 08:32:20 13° E visible
13 Apr 3.0 10:06:50 10° N 10:11:48 56° WNW 10:12:30 51° WSW visible
14 Apr 3.3 09:29:32 10° NNE 09:34:32 59° E 09:34:51 57° ESE visible
14 Apr 4.8 11:10:32 10° NW 11:12:56 13° WNW 11:15:01 11° W visible
15 Apr 4.8 08:53:03 10° NE 08:57:05 24° E 08:57:12 24° E visible
15 Apr 3.8 10:31:34 10° N 10:36:00 31° WNW 10:37:22 27° W visible
16 Apr 2.8 09:53:47 10° N 09:58:52 77° WNW 09:59:43 61° SW visible
17 Apr 3.9 09:16:43 10° NNE 09:21:32 43° E 09:22:03 41° ESE visible
17 Apr 4.5 10:56:44 10° NNW 11:00:06 18° WNW 11:02:13 14° W visible
18 Apr 5.2 08:40:42 10° NE 08:44:01 17° E 08:44:24 17° E visible
18 Apr 3.4 10:18:20 10° N 10:23:06 42° WNW 10:24:33 34° WSW visible
19 Apr 3.0 09:40:49 10° NNE 09:45:54 79° ESE 09:46:54 58° S visible
20 Apr 4.4 09:04:01 10° NE 09:08:30 31° E 09:09:14 30° ESE visible
20 Apr 4.2 10:43:14 10° NNW 10:47:15 24° WNW 10:49:24 18° WSW visible
21 Apr 5.5 08:28:49 10° ENE 08:30:55 12° E 08:31:34 12° E visible
21 Apr 3.0 10:05:12 10° N 10:10:11 58° WNW 10:11:44 40° SW visible
22 Apr 3.4 09:27:54 10° NNE 09:32:54 57° E 09:34:04 46° SSE visible
22 Apr 4.8 11:08:49 10° NW 11:11:19 14° WNW 11:13:49 10° W visible
